Silver Bay, MN

10:04 AM CDT on April 28, 2017 (GMT -0500)
Silver Bay Municipal

Weather History for KBFW - January, 2013

Change the Weather History Date:

Thursday, January 31, 2013

  Actual Average Record
Temperature  
Mean Temperature -2 °F -  
Max Temperature 6 °F 23 °F 42 °F (2012)
Min Temperature -9 °F 3 °F -22 °F (2014)
Degree Days  
Heating Degree Days 66    
Moisture  
Dew Point -11 °F    
Average Humidity 58    
Maximum Humidity 66    
Minimum Humidity 44    
Precipitation  
Precipitation 0.00 in - - ()
Sea Level Pressure  
Sea Level Pressure 29.80 in    
Wind  
Wind Speed 7 mph (NNW)    
Max Wind Speed 13 mph    
Max Gust Speed 23 mph    
Visibility 10 miles    
Events Snow    
Averages and records for this station are not official NWS values.
T = Trace of Precipitation, MM = Missing Value Source: NWS Daily Summary

Daily Weather History Graph

Daily Weather History Graph

Search for Another Location

Airport or City:

Trip Planner

Search our weather history database for the weather conditions in past years. The results will help you decide how hot, cold, wet, or windy it might be!

Date:

Astronomy

Jan. 31, 2013 Rise Set
Actual Time 7:32 AM CST 5:06 PM CST
Civil Twilight 6:59 AM CST 5:39 PM CST
Nautical Twilight 6:22 AM CST 6:16 PM CST
Astronomical Twilight 5:46 AM CST 6:52 PM CST
Moon 10:34 PM CST (1/31) 9:09 AM CST (1/31)
Length of Visible Light 10h 40m
Length of Day
9h 34m
Waning Gibbous, 79% of the Moon is Illuminated
Jan 31
Waning Gibbous
Feb 3
Last Quarter
Feb 10
New
Feb 17
First Quarter
Feb 25
Full

Hourly Weather History & Observations

Time (CST) Temp. Windchill Dew Point Humidity Pressure Visibility Wind Dir Wind Speed Gust Speed Precip Events Conditions
12:13 AM 3.2 °F -7.8 °F -7.6 °F 61% 29.59 in 10.0 mi North 5.8 mph - N/A   Scattered Clouds
12:33 AM 3.2 °F -7.8 °F -7.6 °F 61% 29.59 in 10.0 mi NNW 5.8 mph - N/A   Clear
12:53 AM 3.2 °F -10.3 °F -7.6 °F 61% 29.60 in 10.0 mi North 8.1 mph - N/A   Clear
1:13 AM 3.2 °F -7.8 °F -7.6 °F 61% 29.60 in 10.0 mi NNW 5.8 mph - N/A   Clear
1:33 AM 3.2 °F -4.2 °F -7.6 °F 61% 29.60 in 7.0 mi NNW 3.5 mph - N/A Snow Light Snow
1:53 AM 3.2 °F -7.8 °F -5.8 °F 66% 29.61 in 4.0 mi North 5.8 mph - N/A Snow Light Snow
2:13 AM 3.2 °F -7.8 °F -5.8 °F 66% 29.61 in 5.0 mi NNW 5.8 mph - N/A Snow Light Snow
2:33 AM 3.2 °F -9.1 °F -7.6 °F 61% 29.61 in 7.0 mi NNW 6.9 mph 18.4 mph N/A Snow Light Snow
2:53 AM 1.4 °F -11.3 °F -7.6 °F 66% 29.62 in 7.0 mi North 6.9 mph 17.3 mph N/A   Mostly Cloudy
3:13 AM 1.4 °F -12.5 °F -7.6 °F 66% 29.62 in 10.0 mi NNW 8.1 mph - N/A   Mostly Cloudy
3:33 AM 1.4 °F -13.5 °F -7.6 °F 66% 29.62 in 10.0 mi NNW 9.2 mph - N/A   Overcast
3:53 AM 1.4 °F -13.5 °F -7.6 °F 66% 29.63 in 10.0 mi NNW 9.2 mph 17.3 mph N/A   Overcast
4:13 AM 1.4 °F -12.5 °F -7.6 °F 66% 29.64 in 10.0 mi NNW 8.1 mph - N/A   Overcast
4:33 AM 1.4 °F -14.5 °F -7.6 °F 66% 29.64 in 10.0 mi NNW 10.4 mph 18.4 mph N/A   Overcast
4:53 AM 1.4 °F -9.9 °F -7.6 °F 66% 29.64 in 10.0 mi NNW 5.8 mph 16.1 mph N/A   Overcast
5:13 AM 1.4 °F -11.3 °F -7.6 °F 66% 29.65 in 10.0 mi NNW 6.9 mph 16.1 mph N/A   Overcast
5:33 AM 1.4 °F -13.5 °F -9.4 °F 61% 29.65 in 10.0 mi NNW 9.2 mph 17.3 mph N/A   Overcast
5:53 AM 1.4 °F -16.1 °F -9.4 °F 61% 29.65 in 10.0 mi NNW 12.7 mph 23.0 mph N/A   Overcast
6:13 AM 1.4 °F -15.3 °F -9.4 °F 61% 29.66 in 10.0 mi NNW 11.5 mph 20.7 mph N/A   Overcast
6:33 AM 1.4 °F -16.1 °F -9.4 °F 61% 29.67 in 10.0 mi NNW 12.7 mph 20.7 mph N/A   Overcast
6:53 AM -0.4 °F -16.7 °F -9.4 °F 66% 29.68 in 10.0 mi NNW 10.4 mph 21.9 mph N/A   Overcast
7:13 AM -0.4 °F -15.7 °F -9.4 °F 66% 29.69 in 7.0 mi NNW 9.2 mph 19.6 mph N/A   Overcast
7:33 AM -0.4 °F -18.4 °F -11.2 °F 60% 29.69 in 10.0 mi NNW 12.7 mph 20.7 mph N/A   Overcast
7:53 AM -0.4 °F -16.7 °F -11.2 °F 60% 29.70 in 10.0 mi NNW 10.4 mph 20.7 mph N/A   Overcast
8:13 AM -0.4 °F -14.7 °F -11.2 °F 60% 29.71 in 7.0 mi NNW 8.1 mph 23.0 mph N/A   Mostly Cloudy
8:33 AM -0.4 °F -15.7 °F -11.2 °F 60% 29.73 in 7.0 mi NNW 9.2 mph 21.9 mph N/A   Scattered Clouds
8:53 AM -0.4 °F -15.7 °F -11.2 °F 60% 29.74 in 10.0 mi NNW 9.2 mph 18.4 mph N/A   Clear
9:18 AM 1.4 °F -16.1 °F -11.2 °F 56% 29.74 in 10.0 mi NNW 12.7 mph 19.6 mph N/A   Clear
9:33 AM 1.4 °F -16.1 °F -11.2 °F 56% 29.74 in 10.0 mi NNW 12.7 mph 23.0 mph N/A   Scattered Clouds
9:53 AM 1.4 °F -14.5 °F -11.2 °F 56% 29.76 in 10.0 mi NNW 10.4 mph 19.6 mph N/A   Mostly Cloudy
10:13 AM 1.4 °F -12.5 °F -11.2 °F 56% 29.77 in 10.0 mi NNW 8.1 mph 18.4 mph N/A   Scattered Clouds
10:33 AM 1.4 °F -14.5 °F -11.2 °F 56% 29.78 in 10.0 mi NNW 10.4 mph 17.3 mph N/A   Clear
10:53 AM 1.4 °F -13.5 °F -11.2 °F 56% 29.79 in 10.0 mi NNW 9.2 mph 20.7 mph N/A   Scattered Clouds
11:13 AM 3.2 °F -13.1 °F -11.2 °F 51% 29.80 in 10.0 mi NNW 11.5 mph 21.9 mph N/A   Clear
11:33 AM 3.2 °F -13.9 °F -11.2 °F 51% 29.80 in 10.0 mi NNW 12.7 mph 19.6 mph N/A   Scattered Clouds
11:53 AM 3.2 °F -6.2 °F -11.2 °F 51% 29.81 in 10.0 mi NW 4.6 mph - N/A   Clear
12:13 PM 3.2 °F -10.3 °F -11.2 °F 51% 29.81 in 10.0 mi NW 8.1 mph 18.4 mph N/A   Scattered Clouds
12:33 PM 6.8 °F -3.5 °F -9.4 °F 48% 29.82 in 10.0 mi NW 5.8 mph - N/A   Scattered Clouds
12:53 PM 5.0 °F -6.9 °F -11.2 °F 47% 29.83 in 10.0 mi North 6.9 mph - N/A   Clear
1:13 PM 5.0 °F -10.0 °F -11.2 °F 47% 29.83 in 10.0 mi NNW 10.4 mph 17.3 mph N/A   Clear
1:33 PM 6.8 °F -7.8 °F -11.2 °F 44% 29.84 in 10.0 mi NNW 10.4 mph 16.1 mph N/A   Clear
1:53 PM 6.8 °F -5.9 °F -11.2 °F 44% 29.84 in 10.0 mi NNW 8.1 mph - N/A   Clear
2:13 PM 6.8 °F -7.8 °F -11.2 °F 44% 29.84 in 10.0 mi NNW 10.4 mph 17.3 mph N/A   Clear
2:33 PM 6.8 °F -7.8 °F -11.2 °F 44% 29.85 in 10.0 mi NNW 10.4 mph 18.4 mph N/A   Clear
2:53 PM 6.8 °F -7.8 °F -11.2 °F 44% 29.85 in 10.0 mi NNW 10.4 mph 16.1 mph N/A   Clear
3:13 PM 6.8 °F -7.8 °F -9.4 °F 48% 29.86 in 10.0 mi NW 10.4 mph - N/A   Clear
3:33 PM 6.8 °F -6.9 °F -11.2 °F 44% 29.87 in 10.0 mi NNW 9.2 mph - N/A   Clear
3:53 PM 6.8 °F -5.9 °F -11.2 °F 44% 29.88 in 10.0 mi NW 8.1 mph 19.6 mph N/A   Clear
4:13 PM 5.0 °F -8.1 °F -11.2 °F 47% 29.89 in 10.0 mi NNW 8.1 mph 17.3 mph N/A   Clear
4:33 PM 3.2 °F -11.3 °F -11.2 °F 51% 29.90 in 10.0 mi NW 9.2 mph 19.6 mph N/A   Clear
4:53 PM 1.4 °F -8.3 °F -11.2 °F 56% 29.91 in 10.0 mi NNW 4.6 mph - N/A   Clear
5:14 PM 1.4 °F -8.3 °F -13.0 °F 51% 29.92 in 10.0 mi NNW 4.6 mph - N/A   Clear
5:33 PM -0.4 °F -8.3 °F -11.2 °F 60% 29.92 in 10.0 mi NNW 3.5 mph - N/A   Scattered Clouds
5:53 PM -0.4 °F -8.3 °F -11.2 °F 60% 29.93 in 10.0 mi NW 3.5 mph - N/A   Scattered Clouds
6:13 PM -0.4 °F -12.0 °F -13.0 °F 55% 29.94 in 10.0 mi NW 5.8 mph - N/A   Clear
6:33 PM -0.4 °F -12.0 °F -11.2 °F 60% 29.94 in 10.0 mi NW 5.8 mph - N/A   Clear
6:53 PM -0.4 °F -8.3 °F -11.2 °F 60% 29.95 in 10.0 mi NW 3.5 mph - N/A   Clear
7:13 PM -0.4 °F -10.4 °F -11.2 °F 60% 29.96 in 10.0 mi NW 4.6 mph - N/A   Scattered Clouds
7:33 PM -0.4 °F -14.7 °F -11.2 °F 60% 29.96 in 10.0 mi WNW 8.1 mph - N/A   Scattered Clouds
7:53 PM -2.2 °F -10.4 °F -13.0 °F 60% 29.97 in 10.0 mi NW 3.5 mph - N/A   Clear
8:13 PM -2.2 °F -14.2 °F -13.0 °F 60% 29.98 in 10.0 mi NW 5.8 mph - N/A   Clear
8:33 PM -2.2 °F - -13.0 °F 60% 29.98 in 10.0 mi Calm Calm - N/A   Clear
8:53 PM -4.0 °F - -14.8 °F 60% 29.99 in 10.0 mi Calm Calm - N/A   Clear
9:13 PM -4.0 °F - -14.8 °F 60% 30.00 in 10.0 mi Calm Calm - N/A   Clear
9:33 PM -5.8 °F - -14.8 °F 65% 30.01 in 10.0 mi Calm Calm - N/A   Clear
9:53 PM -5.8 °F - -16.6 °F 60% 30.02 in 10.0 mi Calm Calm - N/A   Clear
10:13 PM -7.6 °F -18.8 °F -16.6 °F 65% 30.02 in 10.0 mi West 4.6 mph - N/A   Clear
10:33 PM -7.6 °F - -16.6 °F 65% 30.03 in 10.0 mi Calm Calm - N/A   Clear
10:53 PM -7.6 °F - -18.4 °F 59% 30.03 in 10.0 mi Calm Calm - N/A   Clear
11:13 PM -9.4 °F - -18.4 °F 65% 30.04 in 10.0 mi Calm Calm - N/A   Clear
11:33 PM -9.4 °F - -18.4 °F 65% 30.04 in 10.0 mi Calm Calm - N/A   Clear
11:53 PM -9.4 °F -20.9 °F -18.4 °F 65% 30.05 in 10.0 mi West 4.6 mph - N/A   Clear